GW0486 Weather Reports


time (UTC)temp
C
wind
direction
speed
KPH
gust
KPH
rain 1hr
cm
rain 24hr
cm
rain mn
cm
humidity
%
barometer
mb
20260506224526 12 315 0.0 8.0 0.00 1.52 0.53 60 1011.2
20260506223606 12 301 0.0 12.9 0.00 1.52 0.53 56 1011.1
20260506222705 12 317 1.6 8.0 0.00 1.52 0.53 56 1011.1
20260506221805 12 296 1.6 8.0 0.00 1.52 0.53 56 1011.2
20260506220905 13 292 1.6 8.0 0.00 1.52 0.53 57 1011.0
20260506220005 13 304 1.6 8.0 0.00 1.52 0.53 57 1010.9
20260506215426 13 312 3.2 12.9 0.00 1.52 0.53 56 1010.8
20260506214526 12 304 1.6 12.9 0.00 1.78 0.53 54 1010.6
20260506213605 12 304 3.2 12.9 0.00 1.78 0.53 55 1010.6
20260506212705 13 296 1.6 12.9 0.00 2.03 0.53 55 1010.5
20260506211805 13 284 1.6 12.9 0.00 2.03 0.53 56 1010.4
20260506210905 13 306 3.2 12.9 0.00 2.03 0.53 56 1010.4
20260506210005 13 298 3.2 16.1 0.00 2.03 0.53 55 1010.5
20260506205405 12 300 1.6 12.9 0.00 2.03 0.53 54 1010.4
20260506204505 13 299 1.6 16.1 0.00 2.03 0.53 55 1010.3
20260506203626 13 316 3.2 16.1 0.00 2.03 0.53 58 1010.1
20260506202705 13 301 1.6 16.1 0.00 2.03 0.53 57 1010.0
20260506201805 13 307 3.2 16.1 0.00 2.03 0.53 58 1009.9
20260506200926 13 313 1.6 16.1 0.00 2.03 0.53 62 1009.9
20260506200005 13 309 1.6 16.1 0.00 2.03 0.53 58 1010.1
20260506195405 13 306 1.6 16.1 0.00 2.03 0.53 58 1010.0
20260506194526 13 290 4.8 24.1 0.00 2.03 0.53 59 1010.3
20260506193605 13 295 3.2 12.9 0.00 2.03 0.53 57 1010.0
20260506192726 13 296 1.6 12.9 0.00 2.03 0.53 61 1010.0
20260506191805 15 307 1.6 12.9 0.00 2.03 0.53 64 1009.9
20260506190905 15 302 1.6 12.9 0.00 2.03 0.53 60 1009.7
20260506190006 15 306 3.2 16.1 0.00 2.03 0.53 59 1009.7
20260506185405 16 306 3.2 16.1 0.00 2.03 0.53 61 1009.6
20260506184504 15 284 4.8 20.9 0.00 2.03 0.53 53 1010.2
20260506183604 15 295 3.2 12.9 0.00 2.03 0.53 54 1010.0
20260506182725 16 291 3.2 12.9 0.00 2.03 0.53 57 1010.0
20260506181804 16 319 1.6 16.1 0.00 2.03 0.53 52 1010.0
20260506180905 16 289 1.6 12.9 0.00 2.03 0.53 50 1010.1
20260506180026 16 303 3.2 16.1 0.00 2.03 0.53 68 1010.1
20260506175404 15 298 3.2 16.1 0.00 2.03 0.53 58 1010.1
20260506174504 15 297 1.6 16.1 0.00 2.03 0.53 63 1010.1
20260506173604 15 304 3.2 16.1 0.00 2.03 0.53 64 1010.2
20260506172704 15 298 3.2 12.9 0.00 2.03 0.53 65 1010.1
20260506171804 15 312 3.2 16.1 0.00 2.03 0.53 60 1009.8
20260506170904 15 308 3.2 20.9 0.00 2.03 0.53 61 1010.1
20260506170004 15 309 1.6 12.9 0.00 2.03 0.53 62 1010.2
20260506165404 14 306 1.6 16.1 0.00 2.03 0.53 62 1010.3
20260506164504 14 306 1.6 16.1 0.00 2.03 0.53 63 1010.1
20260506163604 15 308 3.2 12.9 0.00 2.03 0.53 66 1010.4
20260506162704 15 307 1.6 12.9 0.00 2.03 0.53 65 1010.4
20260506161804 15 285 1.6 8.0 0.00 2.03 0.53 70 1010.2
20260506160904 14 308 1.6 12.9 0.00 2.03 0.53 67 1009.9
20260506160004 13 306 3.2 12.9 0.00 2.03 0.53 67 1009.8
20260506155405 13 302 3.2 16.1 0.00 2.03 0.53 71 1009.8
20260506154504 13 309 1.6 20.9 0.00 2.03 0.53 68 1009.9
20260506153604 12 305 1.6 12.9 0.00 2.03 0.53 72 1009.5
20260506152704 12 284 3.2 16.1 0.00 2.03 0.53 72 1009.5
20260506151804 12 314 1.6 8.0 0.00 2.03 0.53 71 1009.4
20260506150904 11 305 1.6 8.0 0.00 2.03 0.53 72 1009.5
20260506150004 11 308 1.6 12.9 0.00 2.03 0.53 79 1009.5
20260506145404 11 303 1.6 16.1 0.00 2.03 0.53 79 1009.6
20260506144504 10 299 1.6 12.9 0.00 2.03 0.53 77 1009.6
20260506143604 10 296 1.6 12.9 0.00 2.03 0.53 81 1009.3
20260506142704 9 305 1.6 12.9 0.00 2.03 0.53 81 1009.2
20260506141804 9 297 1.6 12.9 0.00 2.03 0.53 83 1009.2
20260506140925 8 293 1.6 12.9 0.00 2.03 0.53 85 1009.0
20260506140004 8 298 1.6 8.0 0.00 2.03 0.53 91 1008.5
20260506135404 8 302 1.6 8.0 0.00 2.03 0.53 94 1008.8
20260506134504 7 310 1.6 12.9 0.00 2.03 0.53 96 1008.6
20260506133603 8 293 0.0 12.9 0.00 2.03 0.53 100 1008.3
20260506132703 7 302 1.6 12.9 0.00 2.03 0.53 100 1008.6
20260506131824 7 295 1.6 16.1 0.00 2.03 0.53 100 1008.7
20260506130904 7 309 0.0 8.0 0.00 2.03 0.53 100 1008.6
20260506130004 7 305 1.6 12.9 0.00 2.03 0.53 100 1008.6
20260506125403 7 286 1.6 12.9 0.00 2.03 0.53 100 1008.6
20260506124503 7 296 1.6 12.9 0.00 2.03 0.53 100 1007.9
20260506123603 7 298 0.0 8.0 0.00 2.03 0.53 100 1007.4
20260506122703 8 310 0.0 8.0 0.00 2.03 0.53 100 1007.9
20260506121824 8 296 0.0 8.0 0.00 2.03 0.53 100 1007.2
20260506120904 7 290 0.0 8.0 0.00 2.03 0.53 100 1007.4
20260506120008 7 309 0.0 3.2 0.00 2.03 0.53 100 1007.6
20260506115408 7 321 0.0 3.2 0.00 2.03 0.53 100 1007.5
20260506114508 7 301 0.0 8.0 0.00 2.03 0.53 100 1007.5
20260506113608 7 308 1.6 16.1 0.00 2.03 0.53 100 1007.3
20260506112708 7 304 3.2 16.1 0.00 2.03 0.53 100 1006.5
20260506111808 7 309 0.0 8.0 0.00 2.03 0.53 100 1006.1
20260506110908 7 295 0.0 8.0 0.00 2.03 0.53 100 1006.2
20260506110008 7 294 1.6 12.9 0.00 2.03 0.53 100 1006.6
20260506105408 7 302 0.0 8.0 0.00 2.03 0.53 100 1006.3
20260506104508 7 303 1.6 12.9 0.00 2.03 0.53 100 1006.4
20260506103608 7 304 0.0 12.9 0.00 2.03 0.53 100 1006.6
20260506102728 7 301 1.6 12.9 0.00 2.03 0.53 100 1006.5
20260506101829 7 299 0.0 8.0 0.00 2.03 0.53 100 1006.1
20260506100908 7 298 0.0 3.2 0.00 2.03 0.53 100 1005.3
20260506100008 7 313 0.0 8.0 0.00 2.03 0.53 100 1005.4
20260506095407 7 301 0.0 8.0 0.00 2.03 0.53 100 1005.5
20260506094507 7 0 0.0 0.0 0.00 2.03 0.53 100 1004.8
20260506093607 7 304 0.0 8.0 0.00 2.03 0.53 100 1005.3
20260506092707 7 302 1.6 12.9 0.00 2.03 0.53 100 1005.6
20260506091828 7 295 1.6 16.1 0.00 2.03 0.53 100 1005.5
20260506090928 8 315 1.6 16.1 0.00 2.03 0.53 100 1005.0
20260506090007 7 302 0.0 8.0 0.00 2.03 0.53 100 1005.1
20260506085428 7 305 0.0 16.1 0.00 2.03 0.51 100 1005.4
20260506084507 7 307 1.6 12.9 0.00 2.03 0.51 100 1005.6
20260506083607 7 288 3.2 16.1 0.00 1.78 0.48 100 1005.6
20260506082728 7 291 4.8 20.9 0.00 1.78 0.46 100 1005.2
20260506081807 7 304 1.6 16.1 0.00 1.78 0.46 100 1005.3
20260506080928 7 292 1.6 20.9 0.00 1.78 0.43 100 1005.2
20260506072728 8 301 1.6 12.9 0.25 1.78 0.38 100 1005.0
20260506071807 8 289 1.6 16.1 0.25 1.78 0.38 100 1004.7
20260506070928 8 295 1.6 12.9 0.25 1.78 0.36 100 1004.9
20260506061807 9 299 0.0 12.9 0.00 1.52 0.15 100 1004.6
20260506060907 9 301 1.6 12.9 0.00 1.52 0.13 100 1004.6
20260506050907 10 295 1.6 12.9 0.00 1.52 0.00 100 1004.9
20260506044506 10 315 0.0 8.0 0.00 1.52 0.00 100 1004.9
20260506043606 10 317 0.0 8.0 0.00 1.52 0.00 100 1004.9
20260506042706 10 308 0.0 8.0 0.00 1.52 0.00 100 1005.1
20260506041806 9 298 0.0 8.0 0.00 1.52 0.00 100 1005.2
20260506040927 10 301 0.0 3.2 0.25 1.52 0.00 100 1005.1
20260506040006 9 285 0.0 12.9 0.25 1.52 0.00 100 1005.5
20260506035427 9 315 0.0 12.9 0.25 1.52 1.42 100 1005.4
20260506034527 10 282 1.6 16.1 0.25 1.27 1.37 100 1005.4
20260506033606 10 297 1.6 12.9 0.25 1.27 1.35 100 1005.6
20260506032706 10 292 1.6 8.0 0.25 1.27 1.32 100 1005.9
20260506031806 10 305 3.2 16.1 0.25 1.27 1.30 100 1005.9
20260506030906 10 297 1.6 16.1 0.25 1.27 1.22 100 1006.1
20260506030006 11 288 1.6 16.1 0.25 1.27 1.17 100 1005.9
20260506025427 12 294 1.6 16.1 0.25 1.02 1.14 100 1005.6
20260506024506 13 284 0.0 12.9 0.25 1.02 1.09 100 1005.5
20260506023606 15 0 0.0 0.0 0.25 1.02 1.04 100 1005.5
20260506022706 15 0 0.0 0.0 0.25 1.02 0.99 100 1005.4
20260506021827 15 0 0.0 0.0 0.25 1.02 0.97 100 1005.4
20260506020906 15 218 0.0 3.2 0.25 1.02 0.89 100 1005.4
20260506020027 15 0 0.0 0.0 0.25 0.76 0.84 100 1005.5
20260506015427 15 0 0.0 0.0 0.25 0.76 0.79 100 1005.7
20260506014506 15 0 0.0 0.0 0.00 0.76 0.71 100 1005.5
20260506013606 15 0 0.0 0.0 0.00 0.76 0.69 100 1005.5
20260506012706 15 0 0.0 0.0 0.00 0.76 0.66 100 1005.3
20260506011827 15 0 0.0 0.0 0.00 0.76 0.66 100 1005.3
20260506010906 15 144 0.0 3.2 0.00 0.51 0.64 100 1005.2
20260506010006 15 114 0.0 8.0 0.00 0.51 0.64 100 1005.0
20260506005406 15 108 0.0 8.0 0.00 0.51 0.64 100 1005.2
20260506004506 15 0 0.0 0.0 0.00 0.51 0.61 100 1005.4
20260506003606 15 273 0.0 3.2 0.00 0.51 0.56 100 1005.4
20260506002705 15 0 0.0 0.0 0.00 0.51 0.56 100 1005.1
20260506001806 15 104 0.0 3.2 0.00 0.51 0.56 100 1005.1
20260506000905 15 104 0.0 3.2 0.00 0.51 0.53 100 1005.3
20260506000005 15 0 0.0 0.0 0.00 0.51 0.53 100 1004.9
20260505235405 15 0 0.0 0.0 0.00 0.51 0.51 100 1005.1
20260505234506 15 94 0.0 3.2 0.00 0.51 0.51 100 1005.2
20260505233626 15 0 0.0 0.0 0.00 0.51 0.48 100 1005.3
20260505232705 15 0 0.0 0.0 0.00 0.51 0.48 100 1005.7
20260505231805 15 265 0.0 3.2 0.00 0.51 0.48 100 1005.5
20260505230926 15 358 0.0 3.2 0.00 0.51 0.48 100 1005.6
20260505230005 15 0 0.0 0.0 0.25 0.51 0.48 100 1005.7
20260505225405 15 187 0.0 3.2 0.25 0.51 0.48 100 1005.8